Temp
18 18 18 18 18 18 18 17 17 17 17 18 18 18 18 19 19 19 19 19 19 19 19 20 20 20 20 20 20 19 19 19 19 18 18 18 17 17 17 16 16 16 16 16 16 15 15 15 15 15 15 14 14 14 14 13 13 13 13 13 13 13 13 13 13 13 13 13 13 13 13 13 13 13 13 13 12 12 13 13 13 13 13 13 13
18 18 18 18 18 18 17 17 17 17 17 17 17 18 18 19 19 19 19 19 19 19 19 19 20 20 20 20 20 20 19 19 19 18 18 18 17 17 16 16 16 16 16 16 16 16 16 15 15 15 15 15 14 14 14 14 13 13 13 13 13 13 13 13 13 13 13 13 13 13 13 12 12 12 12 12 12 12 12 13 12 13 13 13 13
18 18 18 18 17 17 17 17 17 17 17 17 17 17 18 18 18 18 18 18 19 19 19 19 20 20 20 20 20 19 19 19 19 19 18 18 17 17 16 16 16 16 16 16 16 16 16 15 15 16 16 15 15 15 14 14 14 13 13 13 13 13 13 13 13 13 12 12 12 12 12 12 12 12 12 12 12 12 12 12 12 12 13 13 13
18 18 18 18 17 17 18 17 17 17 17 17 17 17 18 18 18 18 18 18 18 19 19 19 19 20 19 19 19 19 19 19 19 18 18 18 17 17 16 16 16 16 16 16 16 16 16 15 15 16 15 15 15 15 15 15 14 14 14 14 13 13 13 13 13 13 13 12 12 12 12 12 12 12 12 12 12 12 12 12 12 12 12 13 13
18 18 18 17 17 18 18 17 17 17 17 17 17 17 17 17 17 17 17 18 18 18 19 19 19 19 19 19 19 18 18 18 18 18 18 17 17 16 16 16 16 16 16 16 16 16 16 16 15 15 15 15 15 15 15 15 15 15 15 14 14 14 14 13 13 13 13 13 13 12 12 12 12 12 12 12 12 12 12 12 12 12 12 12 12
18 18 17 17 17 17 17 17 17 16 16 16 16 17 17 17 17 17 17 17 18 18 18 18 19 19 19 19 18 18 18 18 18 17 17 17 16 16 16 16 16 16 16 16 16 16 16 16 15 15 15 15 15 15 15 15 15 15 15 15 15 15 14 14 14 14 13 13 13 13 13 12 12 12 12 12 12 12 12 12 12 12 12 12 12
17 17 17 17 17 17 17 17 17 16 16 16 16 16 16 17 17 17 17 17 17 18 18 18 18 18 18 18 18 17 17 17 17 17 17 16 16 17 17 16 16 16 16 16 16 16 16 16 15 15 15 15 15 15 15 15 15 15 15 15 15 15 15 14 14 14 13 13 13 13 13 13 12 12 12 12 12 12 12 12 12 11 11 11 12
17 17 17 17 17 17 17 16 16 16 16 16 16 16 16 16 16 16 17 17 17 17 17 17 17 17 17 17 17 17 16 16 16 17 16 16 16 17 17 16 16 16 16 16 16 16 16 16 15 15 15 15 15 15 15 15 15 15 15 15 15 15 15 14 14 14 14 14 14 13 13 14 13 12 12 12 12 12 12 12 12 11 11 11 11
17 17 17 17 17 17 17 16 16 16 16 16 16 15 16 16 16 16 17 17 17 16 16 16 16 16 16 16 16 16 16 16 16 16 16 16 17 16 16 16 16 16 16 16 16 15 15 15 15 15 15 15 15 15 15 15 15 15 15 15 15 15 15 15 14 14 14 14 13 13 13 13 13 13 12 12 12 12 12 12 12 12 12 12 11
17 17 17 17 17 17 16 16 16 16 16 16 16 15 15 16 16 16 16 17 17 16 16 16 16 15 15 15 15 15 15 15 15 15 15 16 16 16 16 16 15 16 16 16 16 15 15 15 15 15 15 15 15 15 15 15 15 15 15 15 15 15 15 14 14 14 14 13 13 13 13 13 13 13 13 12 12 12 12 12 12 12 12 12 12
17 17 17 16 16 16 16 16 16 16 16 16 16 16 16 16 16 16 16 16 16 16 15 15 15 15 15 14 14 15 14 14 14 15 15 15 15 15 16 16 15 15 16 16 16 16 15 15 15 15 15 15 15 15 15 15 15 15 15 15 15 15 15 14 15 14 14 13 13 13 13 13 13 13 13 13 13 13 13 13 12 12 12 12 12
17 17 17 17 16 16 16 16 16 16 16 16 16 16 16 16 15 16 16 15 15 15 15 15 14 14 14 14 14 14 14 14 14 14 15 15 15 15 15 15 15 15 15 15 15 15 15 15 15 15 15 15 15 15 15 15 15 15 15 15 15 15 15 15 15 15 14 14 14 14 13 13 13 13 13 13 13 13 13 13 13 12 12 12 12
17 17 17 17 16 16 16 16 16 16 16 16 16 16 16 15 15 16 16 15 14 14 15 15 14 14 14 14 14 14 14 14 14 14 14 15 15 15 15 15 15 15 15 15 15 15 15 15 15 15 15 15 15 15 15 15 15 15 15 15 15 15 15 15 15 15 15 14 14 14 14 13 13 13 13 13 13 12 13 13 13 13 13 13 13
17 16 16 16 16 16 16 16 16 16 16 15 15 15 15 15 15 15 15 15 14 14 14 15 14 14 14 14 14 14 14 14 14 14 14 14 14 14 15 15 14 14 15 15 15 15 15 15 15 15 15 15 15 15 15 15 15 15 15 15 15 15 15 14 15 15 15 14 14 14 14 13 13 13 13 13 13 12 13 13 13 13 13 13 13
16 16 16 16 16 16 16 16 16 16 16 15 15 15 15 15 15 16 15 14 14 15 15 15 15 14 14 14 14 14 14 14 14 14 14 14 14 14 15 15 15 14 14 15 15 15 15 15 15 15 15 15 15 15 15 15 15 15 15 15 15 15 15 14 15 15 14 14 14 14 14 13 13 13 13 13 13 13 13 13 13 12 12 13 13
16 16 16 16 16 16 16 16 16 16 16 15 15 15 15 15 15 16 15 15 14 14 15 15 15 15 14 13 13 13 14 14 13 14 14 14 14 14 15 14 14 14 14 14 14 14 14 14 14 15 15 15 15 15 15 15 15 15 15 15 15 15 15 15 15 15 14 14 14 14 14 14 14 13 13 13 13 13 13 13 13 13 12 12 13
16 16 16 16 16 16 16 16 16 16 16 16 16 15 15 16 15 16 16 15 15 15 15 15 15 15 15 14 14 14 14 14 14 13 14 14 14 14 14 14 14 14 14 14 14 14 14 14 14 14 15 14 14 14 14 14 14 15 15 15 15 15 15 15 15 15 14 14 14 14 14 14 14 14 14 14 13 13 13 13 13 13 13 13 13
16 16 16 16 16 16 16 16 16 16 16 16 16 16 16 16 16 16 16 16 16 15 15 15 15 15 15 15 16 15 14 14 14 14 13 14 14 14 14 14 14 14 14 14 14 14 14 14 14 14 14 14 13 13 13 14 14 14 14 14 15 15 15 15 15 15 14 14 14 14 14 14 13 13 14 14 13 13 13 13 13 13 13 13 13
16 16 16 16 16 16 16 16 16 16 16 16 16 16 16 16 16 16 16 16 16 16 16 15 15 15 15 15 15 15 15 14 14 14 14 14 13 14 14 14 14 14 14 14 13 13 14 13 13 13 13 13 13 13 13 13 14 14 14 14 15 15 15 15 14 14 14 14 14 14 14 14 13 13 13 13 13 13 13 13 13 13 13 13 13
17 17 17 17 17 17 17 17 17 17 17 17 17 16 16 16 16 16 16 15 16 16 16 16 15 15 15 15 15 15 15 15 15 14 14 14 13 13 13 13 13 13 13 13 13 13 13 13 13 13 13 13 13 13 13 13 13 14 14 14 15 15 15 15 15 14 14 14 14 14 14 14 14 14 13 13 13 13 13 13 13 13 13 13 13
17 17 17 17 17 17 17 17 17 17 17 17 17 17 17 17 17 16 16 16 16 16 16 16 16 16 15 15 15 15 14 15 15 14 14 14 14 13 13 13 13 13 13 13 13 13 13 13 13 13 13 14 14 13 13 13 14 14 14 15 15 15 15 15 15 15 15 15 15 14 14 14 14 14 14 14 14 13 13 13 13 13 13 13 13
17 17 17 17 17 17 17 17 17 17 17 17 17 17 17 17 17 17 16 16 16 16 16 16 16 16 15 15 15 15 14 14 14 14 14 14 14 13 13 13 12 12 12 13 13 13 13 13 13 13 14 14 14 13 13 14 14 14 14 15 15 15 15 15 15 15 15 15 14 14 14 14 14 14 14 14 14 14 13 13 13 13 13 13 13
17 17 17 17 17 17 17 17 17 17 17 17 17 17 17 17 17 17 17 17 16 16 16 16 16 16 16 16 16 15 15 14 14 14 14 13 13 13 12 12 12 11 12 12 13 13 13 13 13 14 14 14 14 14 14 14 14 14 14 14 15 15 15 15 15 15 15 14 14 14 14 14 14 14 14 14 13 13 13 13 13 13 13 13 13
17 17 17 17 17 17 17 17 16 16 16 16 16 16 16 16 17 17 17 17 17 16 16 16 16 16 16 16 15 16 16 15 15 15 14 13 13 12 12 12 11 11 11 12 12 13 13 13 13 14 14 14 14 14 14 14 14 14 14 14 14 14 15 14 14 14 14 14 14 14 13 13 13 13 13 13 13 13 13 13 13 13 13 13 13
17 17 17 17 17 17 17 16 16 16 16 16 16 16 16 17 17 17 17 17 17 17 17 16 16 16 16 16 15 16 16 16 15 15 14 13 12 12 12 12 12 12 12 12 12 12 13 13 13 14 14 14 14 14 14 14 14 14 14 14 14 14 14 14 14 14 14 13 13 13 13 13 13 13 13 13 13 13 13 13 13 13 13 13 13
17 17 17 17 17 17 17 16 16 16 16 16 16 17 17 17 18 18 18 18 18 17 17 17 16 16 16 16 16 16 16 16 15 15 15 14 13 12 12 12 12 12 12 13 12 12 13 13 13 13 14 14 14 14 14 14 14 14 14 14 14 14 14 14 13 13 13 13 13 13 13 13 13 13 13 13 13 12 12 12 12 13 13 13 13
17 17 17 17 17 17 17 16 16 16 16 16 16 17 17 17 18 18 18 18 18 18 17 17 16 16 16 16 16 16 16 16 16 16 16 16 14 14 13 13 12 12 12 12 13 13 13 13 13 13 14 14 14 14 14 14 13 13 13 13 13 13 13 13 13 13 13 13 13 12 12 12 12 12 12 12 12 12 12 12 12 12 12 12 12
17 17 17 17 17 17 17 16 16 16 16 16 16 17 17 17 18 18 18 18 18 18 17 17 17 16 16 16 16 16 16 16 16 16 16 16 16 16 15 14 13 12 12 12 13 13 13 13 13 13 14 14 14 14 14 13 13 13 13 13 13 13 13 13 13 13 12 12 12 12 12 12 12 12 12 11 11 11 11 11 11 11 11 11 11
17 17 17 17 17 17 17 16 16 16 16 16 16 16 17 17 17 17 18 18 18 18 18 18 17 17 16 16 16 16 16 16 16 16 16 16 16 16 16 16 15 13 13 13 13 13 13 13 13 13 14 14 14 14 13 13 13 13 13 13 13 13 12 12 12 12 12 12 12 12 12 12 11 11 11 11 11 11 11 10 10 10 10 10 11
17 17 17 17 17 17 16 16 16 16 16 16 16 16 17 17 17 17 17 17 18 18 18 18 17 17 16 16 16 16 16 16 16 16 16 16 16 16 16 16 16 15 14 13 13 13 13 13 13 13 13 13 13 13 13 13 13 13 13 13 13 12 12 12 12 12 12 12 12 12 12 11 11 11 11 11 11 11 11 10 10 10 10 10 10
17 17 17 17 17 16 16 16 16 16 16 16 16 16 16 17 17 17 17 17 18 18 18 18 18 17 17 17 16 16 16 16 15 16 16 16 16 16 16 16 16 16 15 14 13 14 13 14 14 13 13 13 13 13 13 13 13 13 13 13 12 12 12 12 12 12 12 12 12 11 11 11 11 11 11 11 11 10 10 10 10 10 10 10 9
17 17 17 17 17 16 16 16 16 16 15 15 16 16 16 17 17 17 17 17 17 17 18 18 18 17 17 17 17 17 16 16 16 16 16 16 16 16 16 16 16 16 16 15 14 14 14 14 14 14 14 13 13 13 13 13 13 13 13 13 12 12 12 12 12 12 12 12 12 12 11 11 11 11 11 10 10 10 10 10 10 10 10 10 9
16 17 17 17 17 16 16 16 16 16 15 16 16 16 16 16 16 16 17 17 17 17 17 18 17 18 18 18 18 17 17 16 16 16 16 16 16 16 16 16 16 16 16 16 14 14 14 14 14 14 14 14 13 13 13 13 13 13 13 12 12 12 12 12 12 12 12 12 12 12 11 11 11 11 11 10 10 10 10 10 10 10 10 10 10
16 16 17 17 17 16 16 16 16 16 16 16 16 16 16 16 16 16 16 17 17 17 17 17 17 17 18 18 18 17 17 17 16 16 16 16 16 16 16 16 16 16 16 16 15 14 14 14 14 14 14 14 14 14 13 13 13 13 13 12 12 12 12 12 12 12 11 11 11 11 11 11 11 11 11 11 10 10 10 10 10 10 10 10 10
16 16 16 17 16 16 16 16 16 16 16 16 16 16 16 16 16 16 16 17 17 17 17 17 17 17 18 18 18 18 17 17 17 17 17 16 16 16 16 16 16 16 16 16 16 15 14 14 14 14 14 14 14 14 14 13 13 13 13 12 12 12 12 12 12 11 11 11 11 11 11 11 11 11 11 11 10 10 10 9 10 10 10 9 9
16 16 16 16 16 16 16 16 16 16 16 16 16 16 16 16 16 16 16 16 17 17 17 17 17 17 17 17 18 18 18 17 17 17 17 17 17 16 16 16 16 16 16 16 16 16 15 14 14 14 14 14 14 14 14 13 13 13 12 12 12 12 12 12 11 11 11 11 11 11 11 11 11 11 10 10 10 10 9 9 9 9 9 9 9
16 16 16 16 16 16 16 16 16 16 16 16 16 16 16 16 16 16 16 16 16 17 17 17 17 17 17 17 17 17 17 18 18 17 17 17 17 16 16 16 16 16 16 16 16 16 16 15 14 14 14 14 14 14 14 13 13 12 12 12 12 12 11 11 11 11 11 11 11 10 10 10 10 10 10 9 9 9 9 9 9 9 9 9 9
16 16 16 16 16 16 16 17 17 17 17 17 17 17 16 16 16 16 16 16 16 16 16 16 16 16 16 17 17 17 17 17 18 18 17 17 17 17 16 15 15 16 16 16 16 16 16 15 14 14 13 13 14 13 13 13 13 12 12 12 11 11 11 11 11 10 10 10 10 10 10 9 9 9 9 9 9 9 9 9 9 9 9 8 8
16 16 16 16 16 16 16 17 17 17 17 17 17 17 17 16 16 17 17 16 16 16 16 16 16 16 16 16 16 16 16 17 17 17 17 17 17 17 16 15 15 16 16 16 16 16 16 15 14 14 13 13 13 13 12 12 13 12 12 11 11 11 11 11 10 10 10 10 9 9 9 9 9 9 9 9 9 9 8 8 8 8 8 8 8
16 16 16 16 16 16 16 17 17 17 17 17 17 17 17 17 16 17 17 16 16 16 16 16 16 16 16 16 16 16 16 16 16 16 17 17 17 17 16 16 16 16 16 16 16 15 15 15 14 13 13 12 12 12 12 12 12 12 11 11 11 11 10 10 10 10 9 9 9 9 9 8 8 8 8 8 8 8 8 8 8 8 7 7 7
16 16 16 16 16 16 17 17 17 17 17 17 17 17 17 16 16 17 17 16 16 16 16 16 16 16 16 16 16 16 16 16 16 16 16 16 16 16 16 16 16 16 16 16 15 15 15 14 13 13 12 12 12 12 11 11 11 11 11 11 11 10 10 10 10 9 9 8 8 8 8 8 8 8 8 8 8 8 7 7 7 7 7 6 6
16 16 16 16 16 16 17 17 17 17 17 17 17 17 17 16 16 16 16 16 16 16 16 16 16 16 16 16 15 15 15 15 15 16 16 16 16 16 16 16 16 16 16 15 15 15 14 14 13 13 12 11 11 11 11 11 11 11 11 11 10 10 10 9 9 9 8 8 8 8 8 7 7 7 7 7 7 7 7 6 6 6 6 6 5
16 16 16 16 16 17 17 16 17 17 17 17 17 17 17 16 16 16 16 16 16 16 16 16 16 16 16 16 15 15 15 15 15 15 15 15 15 16 16 16 16 16 16 15 15 14 14 14 13 13 13 11 11 11 11 11 11 10 10 10 10 10 9 9 9 8 8 8 7 7 7 7 7 7 6 6 6 6 6 6 6 6 5 5 4
16 16 16 16 16 16 16 16 17 17 17 17 17 17 17 17 17 16 16 16 16 16 16 16 16 16 16 16 15 15 15 15 15 15 15 15 15 15 15 15 15 15 15 15 15 14 14 14 13 13 13 12 11 11 11 11 10 10 10 10 10 10 9 9 9 8 8 7 7 7 7 7 6 6 6 6 6 6 6 5 5 4 4 4 4
16 16 16 16 16 16 16 16 16 16 17 17 17 17 17 17 17 16 16 16 16 16 16 16 16 16 16 15 15 14 14 14 14 14 15 15 15 15 15 15 15 15 15 15 15 14 14 14 14 13 13 12 11 11 10 10 10 10 10 10 10 9 9 9 8 8 7 7 7 7 7 7 6 6 6 5 5 5 5 5 4 3 3 3 3
15 16 16 16 16 16 16 16 16 16 16 16 16 16 16 16 16 16 16 16 16 16 16 16 15 15 15 15 14 14 14 14 14 14 14 14 14 14 14 14 14 14 14 14 14 14 14 14 14 13 12 12 11 11 10 10 10 10 10 9 9 9 8 8 8 7 7 6 6 6 6 6 6 6 5 5 5 5 5 4 4 3 3 3 3
15 15 16 16 16 16 15 15 16 16 16 16 16 16 16 16 16 16 16 16 16 16 15 15 15 15 15 14 14 13 13 13 13 13 13 14 14 13 13 13 13 13 13 13 13 13 13 13 13 12 11 11 11 10 10 10 10 10 10 9 9 8 8 7 7 6 6 6 5 5 5 5 5 5 5 5 5 5 4 4 4 3 3 3 3
14 15 15 15 15 15 15 16 16 16 16 16 16 16 16 16 16 16 16 15 15 15 15 15 15 14 14 14 13 13 13 13 13 13 13 13 13 13 12 12 12 12 12 12 12 12 12 12 12 11 11 10 10 10 10 10 10 9 9 9 8 7 7 7 6 6 6 5 5 5 5 5 5 4 4 4 4 4 4 4 3 3 3 3 3
14 14 14 14 14 14 15 15 15 15 15 15 15 15 15 16 16 15 15 15 15 15 15 15 15 14 14 14 13 13 13 13 13 12 12 12 12 12 12 11 11 11 11 11 11 11 11 11 11 10 10 10 10 10 9 9 9 9 9 8 7 7 7 6 6 6 6 5 5 5 4 4 4 4 3 4 3 4 4 4 3 3 3 2 2
13 13 13 13 13 14 14 14 14 15 15 14 14 14 15 15 15 15 14 14 14 14 14 14 14 14 14 13 13 13 13 13 13 12 12 12 12 12 11 11 10 10 10 10 10 10 10 10 10 10 9 9 9 9 9 9 8 8 8 7 7 6 6 6 5 5 5 5 5 4 4 3 3 3 3 3 3 3 3 3 3 2 2 2 2
12 12 12 12 13 13 13 13 13 14 14 14 14 14 14 15 14 14 14 13 13 14 14 14 14 13 13 13 12 12 12 12 12 12 12 12 12 11 11 11 10 10 9 9 10 10 9 9 9 9 9 9 9 9 9 8 8 7 7 7 6 6 6 5 5 5 5 4 4 3 3 3 3 3 2 2 2 2 3 2 2 2 2 2 2
Height
824 825 826 826 828 829 831 832 833 834 835 836 837 837 835 834 835 836 837 838 838 840 840 841 841 842 842 843 844 844 845 846 848 849 850 850 851 852 853 854 855 856 857 857 857 857 858 858 858 858 858 858 859 859 859 859 859 859 859 859 859 860 860 861 861 862 862 862 862 862 862 862 862 862 862 862 861 861 861 861 861 861 861 861 861
824 825 826 827 828 830 831 832 833 834 835 836 837 837 835 834 835 836 837 838 839 840 840 841 841 842 842 843 844 844 845 846 848 849 849 850 851 852 853 855 856 856 857 858 858 858 858 859 859 859 859 859 859 860 860 860 860 860 860 860 860 860 861 862 862 862 863 863 863 863 862 862 862 862 862 862 862 862 862 862 862 862 862 862 862
825 826 827 827 829 830 831 832 833 834 835 836 837 837 835 834 835 836 837 839 840 840 841 841 842 842 843 843 844 845 846 847 848 849 849 850 851 853 854 855 856 857 858 859 859 859 859 859 859 860 860 860 860 860 860 861 861 861 861 861 861 861 862 862 863 863 863 863 863 863 863 863 863 863 863 863 863 863 863 863 863 863 863 863 863
825 826 827 828 830 831 831 832 834 834 835 836 836 836 835 835 836 837 838 839 840 841 841 842 842 842 843 844 844 845 846 847 848 849 850 851 852 854 855 856 857 857 858 859 859 859 859 859 860 860 860 860 861 861 861 861 861 862 862 862 862 862 863 863 863 863 864 864 864 864 864 864 864 864 864 864 864 864 864 864 864 864 865 865 864
825 827 828 829 830 831 832 832 834 835 835 836 836 836 835 836 837 838 839 840 841 841 841 842 842 842 843 844 845 846 846 847 848 849 851 852 853 855 856 856 857 857 858 859 859 859 859 860 860 860 861 861 861 862 862 862 862 862 862 862 862 863 863 863 863 864 864 864 865 865 865 865 865 865 864 864 864 864 864 865 865 865 865 865 865
825 827 827 829 830 831 832 833 834 835 835 836 835 835 836 836 837 839 840 841 841 841 842 842 842 843 844 844 845 845 846 847 848 850 852 853 855 856 855 855 856 857 857 858 859 859 859 860 860 861 861 862 862 862 862 862 862 862 862 862 863 863 863 863 864 864 864 865 865 866 866 866 866 866 865 865 865 865 865 865 865 866 866 866 866
825 826 827 828 830 831 832 833 834 835 835 835 835 836 836 837 838 840 840 841 841 841 842 842 843 844 844 845 845 845 846 847 849 850 852 854 856 856 854 854 856 857 858 858 859 860 860 860 861 862 862 863 863 863 863 863 863 863 863 863 863 863 863 863 864 864 865 865 866 866 866 866 866 866 866 866 866 866 866 866 866 866 867 867 867
826 826 827 828 830 831 832 833 834 835 835 835 836 836 837 838 839 840 841 841 841 842 842 843 844 844 845 845 845 846 847 848 849 850 852 855 856 854 854 856 857 857 858 858 859 860 861 861 861 863 863 863 864 864 863 863 864 864 864 864 864 864 864 864 864 865 865 866 866 866 867 867 867 867 867 867 867 867 867 867 867 867 867 867 868
826 826 827 828 830 831 832 833 834 835 835 836 836 837 837 838 839 840 841 841 841 842 843 844 844 845 845 846 846 847 847 848 849 851 852 854 854 854 855 857 857 857 858 858 859 860 860 861 862 863 864 864 864 864 864 864 864 864 865 865 864 864 864 865 865 865 866 866 867 867 867 867 867 868 868 868 868 868 868 868 868 868 868 868 868
825 826 827 828 829 831 832 833 834 835 835 836 836 837 838 839 839 840 841 841 841 842 843 844 845 845 846 847 847 847 848 849 849 851 852 853 854 855 856 856 856 857 858 858 858 859 860 861 862 863 864 865 865 864 864 864 865 865 866 865 865 865 865 865 866 866 867 867 868 867 867 867 868 868 868 868 868 868 868 868 868 868 868 869 869
825 826 827 828 829 831 832 833 834 834 835 835 836 837 837 839 840 840 841 841 842 842 844 845 845 846 847 848 848 848 849 849 850 851 852 854 855 856 856 855 856 857 858 858 858 859 860 861 862 863 864 865 865 865 865 865 866 866 866 866 866 865 865 866 866 867 868 869 869 868 868 868 868 868 868 869 869 869 868 868 869 869 869 869 869
825 826 827 828 829 830 832 833 834 834 835 835 836 837 837 838 840 840 841 841 842 843 844 845 846 847 848 849 849 849 850 850 851 851 852 854 855 856 856 856 857 858 858 858 858 860 861 861 861 863 864 864 865 865 866 866 867 867 867 866 866 866 866 866 867 867 868 869 869 869 869 868 868 868 868 869 869 869 869 869 869 869 869 869 870
824 825 827 828 829 830 831 833 834 835 835 836 837 837 838 839 840 840 841 841 843 844 845 845 846 848 849 850 850 851 851 852 852 852 853 854 855 856 857 857 859 860 859 859 859 860 862 862 862 863 864 864 865 865 866 866 867 867 867 866 866 866 867 867 867 867 868 868 869 870 870 869 868 868 868 869 869 870 870 870 870 870 870 870 870
824 825 827 828 829 830 832 833 834 835 836 837 837 838 838 839 840 840 841 841 843 844 845 846 847 848 849 850 851 852 853 853 853 854 854 855 856 856 857 857 859 860 860 861 861 861 862 863 863 863 864 864 865 865 866 866 867 867 867 866 866 866 867 867 867 867 868 868 869 870 871 870 869 869 869 870 870 870 870 870 870 870 870 870 870
824 825 827 828 829 831 832 833 834 835 836 837 837 838 838 839 840 840 840 842 843 845 846 846 847 848 849 851 852 853 854 855 855 855 855 856 857 857 857 858 858 859 861 862 862 862 862 863 863 864 864 865 865 866 866 867 867 867 866 866 866 866 867 867 868 868 869 869 870 870 871 871 871 870 871 871 871 871 871 871 871 870 870 870 871
824 826 827 829 830 831 832 833 834 835 836 837 837 838 838 839 840 840 840 841 843 844 846 846 847 848 849 852 854 855 856 856 856 856 856 857 857 858 858 859 859 860 860 861 861 862 862 863 863 864 864 865 865 866 866 867 867 867 867 866 866 866 867 868 868 868 868 869 870 870 870 871 871 871 872 872 872 871 871 871 871 871 871 871 871
825 826 828 829 830 831 832 833 834 835 836 837 837 838 838 839 839 840 840 841 842 844 845 846 847 847 848 851 853 855 857 857 857 858 858 858 858 859 859 860 860 860 860 860 861 861 862 863 863 864 864 865 866 867 867 867 868 868 867 867 866 867 867 868 869 869 869 869 870 871 870 871 871 872 872 872 872 872 872 872 871 871 872 872 872
825 827 828 829 830 831 832 834 834 835 836 837 837 838 838 838 839 840 841 842 842 843 844 845 846 847 848 848 850 852 854 855 857 859 859 859 859 860 860 861 861 861 861 862 862 862 862 863 864 864 865 866 867 868 868 869 869 869 868 867 867 867 867 868 869 870 871 871 871 872 871 871 872 872 872 872 872 872 871 872 871 872 872 872 872
826 827 828 829 831 832 833 834 834 835 836 836 837 837 838 838 839 840 841 842 843 843 843 844 846 847 848 848 849 849 851 853 855 857 859 860 861 861 862 862 863 863 863 864 864 863 864 864 865 866 866 867 868 869 869 870 870 870 870 869 869 869 869 869 870 871 872 872 872 872 872 873 873 872 872 872 872 872 872 872 872 872 872 872 872
826 827 828 830 831 832 833 834 835 835 836 836 837 837 838 838 838 839 840 841 842 843 843 844 844 846 847 848 849 850 850 851 852 854 857 861 862 863 863 864 864 865 865 865 865 865 865 866 866 867 867 868 868 869 870 871 871 871 872 871 871 871 871 871 871 872 872 873 873 873 873 874 873 873 873 873 873 873 872 872 872 872 872 872 872
827 828 829 830 831 832 833 834 835 835 836 836 837 837 838 838 838 839 839 841 842 843 843 843 843 845 847 848 849 850 851 852 853 853 855 859 863 864 864 865 865 866 866 866 866 866 866 867 867 867 868 868 869 870 871 872 872 873 873 873 873 873 873 873 873 873 873 873 874 874 874 874 874 874 874 874 874 874 874 873 873 873 873 872 872
827 828 830 831 832 833 834 835 835 836 836 837 837 838 838 838 839 839 839 840 841 842 843 843 843 844 846 848 848 849 851 852 854 854 856 858 862 864 865 866 867 868 868 867 867 867 867 867 868 868 869 869 870 871 872 873 873 874 874 874 874 874 874 874 874 875 874 874 875 875 875 875 875 875 875 875 875 875 875 874 874 874 873 873 873
828 829 830 831 832 833 834 835 835 836 837 837 838 838 838 838 839 839 839 840 840 841 842 843 843 844 846 847 847 848 849 850 852 853 854 857 860 864 866 867 868 868 869 869 868 868 868 869 869 870 870 871 872 873 873 874 874 875 875 875 875 876 876 876 876 876 876 876 876 876 876 876 876 876 876 876 876 876 876 875 875 874 874 874 873
828 829 830 831 832 833 834 835 836 837 837 838 838 838 839 839 839 839 840 840 840 841 842 843 843 844 845 846 847 848 848 849 851 852 853 856 858 863 866 867 868 870 870 870 870 870 870 870 870 871 872 872 873 874 874 875 876 876 877 877 877 877 877 877 877 878 878 878 878 878 877 877 877 877 877 877 877 877 876 876 875 875 875 875 874
828 829 830 831 832 833 834 835 836 837 838 838 839 839 839 839 840 840 840 840 841 841 842 843 843 844 845 846 847 848 849 849 851 852 854 856 857 861 866 867 868 870 871 871 871 871 871 872 872 872 873 874 874 875 876 876 877 878 878 878 878 879 879 879 879 879 879 879 880 880 879 879 879 878 878 878 877 877 877 876 876 876 876 875 875
828 829 830 831 832 833 834 835 836 837 838 839 839 840 840 840 841 841 841 841 841 842 842 843 844 845 845 847 848 849 849 850 851 852 853 855 857 859 863 867 869 870 871 871 871 872 873 873 874 874 875 875 876 877 877 878 879 879 880 880 880 880 880 880 880 880 881 881 881 881 881 881 880 880 879 879 878 878 877 877 877 876 876 876 876
828 829 830 831 832 833 834 835 836 837 838 839 840 840 841 841 841 841 842 842 842 842 843 844 845 846 846 847 848 849 850 851 852 853 853 854 856 857 859 864 869 871 871 872 872 873 873 874 875 875 876 877 877 878 879 879 880 881 881 881 881 882 882 882 882 882 882 882 882 882 882 882 881 881 880 880 879 879 878 878 877 877 877 877 876
827 828 829 830 831 833 833 834 836 837 838 839 840 841 842 842 842 842 842 842 843 843 844 845 845 846 847 848 849 849 851 851 852 854 854 855 856 856 857 859 864 870 873 873 873 874 874 875 876 877 877 878 878 879 880 881 881 882 882 883 883 883 883 883 883 883 883 883 883 883 883 882 882 882 881 881 880 880 879 879 878 878 877 877 877
827 828 829 830 832 833 833 834 835 837 838 839 840 841 842 843 843 843 843 843 844 844 845 845 845 846 847 848 849 850 851 852 853 854 855 856 857 857 858 858 859 865 870 873 874 874 874 875 876 877 878 879 879 880 881 882 882 883 883 884 884 884 884 884 884 884 884 884 884 883 883 883 882 882 882 881 881 880 880 879 879 878 878 877 877
828 829 830 831 832 833 834 835 836 836 837 838 840 841 842 843 843 844 844 845 845 845 846 846 846 847 847 848 849 850 851 852 853 855 856 857 858 858 859 860 860 862 865 870 873 874 874 875 876 877 878 879 880 881 882 882 883 884 884 884 885 885 885 885 884 884 884 884 884 884 884 883 883 882 882 881 881 881 880 880 879 879 878 878 877
829 830 831 832 833 834 835 836 836 836 837 838 839 841 842 843 844 845 846 846 846 847 847 847 847 848 848 849 850 851 852 853 854 856 857 858 859 860 861 862 862 863 864 866 870 873 874 875 876 877 878 879 880 881 882 883 883 884 885 885 885 885 885 885 885 885 885 885 884 884 884 884 883 883 882 881 881 881 880 880 879 878 878 878 877
829 830 832 833 834 835 836 837 837 837 838 839 840 841 842 843 844 845 846 847 847 848 848 848 848 849 849 849 850 851 852 853 855 856 858 859 860 861 862 863 864 865 865 866 868 871 874 875 875 877 878 879 880 881 882 883 884 885 885 885 886 886 886 886 885 885 885 885 885 885 885 884 884 883 882 881 881 881 880 880 879 878 878 877 877
829 830 832 833 834 836 837 837 838 838 839 840 841 842 843 844 845 846 847 848 848 849 849 849 850 850 850 851 851 852 853 854 855 857 858 859 861 861 862 863 864 865 866 867 868 871 873 875 876 877 878 879 880 881 882 883 884 885 885 886 886 886 886 886 886 886 885 885 885 885 885 884 884 883 882 881 881 881 880 880 879 879 878 877 877
829 830 832 833 835 836 837 838 838 839 840 841 842 843 845 846 846 847 848 848 849 849 850 850 851 851 851 852 852 853 854 855 856 857 858 859 860 861 862 863 864 866 867 868 869 870 873 875 876 877 878 879 880 881 882 883 884 885 885 886 886 886 886 886 886 886 886 886 885 885 884 884 884 883 882 881 881 880 880 880 879 879 878 878 877
829 830 832 834 835 836 838 838 839 840 841 842 843 844 846 847 848 848 849 850 850 850 851 851 852 852 853 853 853 854 855 856 856 857 858 859 860 861 862 863 864 866 867 868 869 870 872 874 876 877 878 879 880 881 882 882 883 884 885 886 886 886 886 886 886 886 886 886 885 885 884 884 883 883 882 881 881 880 880 880 879 879 878 878 877
829 830 832 834 835 837 838 839 840 841 842 843 844 845 846 847 849 849 850 850 851 851 852 852 853 853 854 854 854 855 855 856 857 857 858 859 860 860 861 862 864 865 867 868 869 870 871 873 875 876 877 878 879 880 881 881 882 883 884 885 886 886 886 885 885 886 886 885 885 884 884 883 883 882 882 881 881 880 880 879 879 879 878 878 877
828 830 832 834 835 837 838 839 840 841 842 843 844 845 846 847 849 850 850 851 852 852 852 853 853 854 854 855 855 855 856 856 856 857 858 859 859 860 860 861 863 865 866 868 869 869 870 871 873 874 876 877 878 879 879 880 881 882 883 884 885 885 885 885 885 885 885 885 884 884 883 883 882 882 881 881 880 880 879 879 879 878 878 877 876
828 830 831 833 835 836 838 839 840 841 842 843 844 844 846 847 848 850 850 851 852 852 853 853 854 854 855 855 855 856 856 856 857 857 857 858 858 859 859 860 862 864 865 867 868 869 869 870 871 873 874 876 877 877 878 879 879 880 882 883 884 885 885 885 885 885 884 884 884 883 883 882 882 881 880 880 879 879 879 878 878 878 877 877 876
828 830 831 833 835 836 838 839 840 841 841 842 843 844 845 846 847 849 850 851 851 852 853 853 854 854 855 855 856 856 857 857 857 857 857 857 857 857 858 859 861 863 864 866 867 868 869 870 871 872 873 875 876 876 878 879 879 880 881 882 883 884 885 885 884 884 884 883 883 883 882 882 881 880 880 879 879 879 878 878 877 877 876 876 875
828 830 832 833 835 836 837 838 839 840 841 842 842 843 845 846 847 848 849 850 851 852 852 853 854 854 855 855 856 856 857 857 857 857 857 858 857 858 858 859 861 862 863 865 866 867 868 869 871 872 873 874 875 876 877 879 879 880 881 882 883 884 884 884 884 884 884 883 883 882 882 881 881 880 879 879 878 878 878 878 877 876 876 875 874
829 830 832 833 834 836 837 838 839 839 840 841 842 843 844 845 847 848 849 850 851 851 852 853 853 854 855 855 856 856 856 857 857 857 857 858 858 858 859 860 861 862 863 864 865 866 868 869 870 872 873 874 875 876 877 878 879 880 881 882 882 883 884 884 884 883 883 883 882 882 881 881 880 880 879 879 878 878 878 877 876 876 875 874 873
829 830 831 832 834 835 836 837 838 838 838 839 840 842 843 844 846 847 849 850 850 851 852 852 853 853 854 855 855 855 856 856 856 857 857 857 858 858 859 860 861 862 863 864 865 866 867 868 870 871 872 873 875 875 876 878 879 879 880 881 882 883 883 883 883 883 883 883 882 881 881 880 880 879 879 878 878 877 877 876 875 875 874 873 872
829 830 831 832 833 834 835 836 837 837 838 837 838 840 842 843 845 846 847 849 849 850 851 851 852 852 853 854 854 854 855 855 855 856 856 857 857 858 859 859 860 861 862 863 864 865 866 867 869 870 871 872 874 875 876 877 878 879 880 881 881 882 883 883 883 883 882 882 882 881 880 880 879 879 878 877 877 876 876 875 874 873 872 871 870
829 830 830 831 832 833 834 836 836 837 837 837 837 838 840 842 843 844 846 847 848 849 850 850 851 851 852 852 853 853 853 854 854 855 855 856 856 857 858 859 859 860 861 862 863 864 865 866 868 869 870 871 873 875 876 877 878 879 879 880 880 881 881 882 882 882 882 881 881 881 880 879 879 878 877 877 876 876 875 874 872 871 870 869 868
829 829 830 830 832 833 834 835 836 836 837 837 837 838 839 840 841 843 844 845 846 847 848 849 849 850 850 851 851 851 852 852 853 854 854 855 855 856 857 857 858 859 860 861 861 863 864 865 866 868 869 871 872 874 875 876 877 878 878 879 879 880 880 880 880 880 881 880 880 880 879 879 878 878 877 876 876 875 874 872 871 869 868 867 866
828 828 829 830 831 832 833 834 835 835 836 836 836 837 838 839 840 841 842 843 844 845 846 847 847 848 848 849 849 850 850 851 852 853 853 854 855 855 856 857 858 858 859 860 861 862 863 864 865 866 868 870 871 873 874 875 876 877 877 878 878 879 879 879 879 880 880 880 880 879 879 878 877 877 876 875 874 873 872 870 869 868 867 866 865
827 828 829 830 831 832 833 833 833 834 834 835 835 836 836 837 839 840 841 841 842 843 844 844 845 845 846 846 847 848 849 850 851 852 853 853 854 854 855 857 858 858 859 860 861 861 862 864 865 866 868 870 871 872 873 874 875 876 876 877 877 878 878 879 879 879 879 879 878 878 877 876 876 875 874 873 872 871 870 869 868 868 867 866 865
826 827 828 829 830 831 831 832 832 832 832 833 833 834 835 836 837 838 839 840 840 840 841 842 842 843 844 844 845 846 847 849 850 851 852 853 854 854 855 856 858 858 859 860 861 862 863 864 865 866 868 869 871 872 873 874 875 875 875 876 876 877 877 878 878 878 878 878 877 876 876 875 874 873 872 872 871 870 869 868 867 867 866 865 864
825 826 827 828 829 830 830 830 830 830 831 831 832 833 834 834 835 836 837 838 838 838 839 840 840 841 842 842 843 844 845 847 848 849 851 852 853 854 854 855 857 858 859 860 861 862 863 864 865 866 868 869 871 872 873 874 874 875 875 875 876 876 877 877 877 877 877 877 876 876 875 874 874 873 871 870 869 868 867 867 866 866 865 864 863
825 826 827 828 828 829 828 828 828 829 829 830 831 832 833 833 834 834 835 836 836 837 837 838 839 840 840 841 842 843 844 845 846 847 848 849 851 852 853 854 856 857 859 860 861 862 863 864 865 867 868 869 870 872 873 873 874 875 875 875 876 876 876 877 877 877 877 876 876 875 875 874 873 872 870 868 867 866 866 865 865 864 863 862 861
826 826 827 827 827 827 827 827 827 827 828 829 829 830 831 832 832 833 833 834 834 835 836 837 837 838 839 840 841 842 843 844 845 846 847 848 849 850 851 853 855 857 858 860 860 862 863 864 865 867 868 869 870 871 872 873 874 874 875 875 875 876 876 877 877 877 876 876 875 875 874 873 872 872 870 868 865 863 863 864 864 863 862 861 860
Wind_Speed
15 15 14 13 13 12 12 10 10 9 8 8 6 4 7 9 7 6 6 6 6 7 7 8 9 9 9 10 12 13 13 13 12 11 11 10 10 9 9 10 7 5 6 5 5 7 8 8 8 7 7 7 8 7 6 7 9 9 9 8 8 9 9 8 8 7 8 9 8 7 8 8 8 8 7 7 8 7 6 7 8 8 7 7 8
14 15 14 13 13 12 11 9 9 8 7 5 4 4 6 8 7 6 6 6 6 6 6 7 8 8 8 10 11 11 13 13 12 12 12 11 10 10 10 10 8 6 6 5 5 5 6 8 9 8 7 8 8 7 7 8 8 8 7 7 6 8 9 8 7 7 8 8 7 7 7 7 8 8 8 8 8 8 7 7 8 8 7 7 7
13 13 14 12 12 11 9 8 7 6 5 3 3 4 6 7 7 7 6 6 6 6 6 6 6 7 7 9 10 10 12 12 12 12 12 11 11 11 11 10 8 7 6 5 5 4 3 6 9 8 8 9 8 8 8 8 7 6 7 6 6 8 8 7 6 7 7 7 7 7 7 7 8 7 8 8 8 9 9 8 8 9 9 7 6
11 11 11 11 10 9 8 7 5 4 3 3 3 4 6 7 7 8 7 6 7 7 7 6 6 7 7 8 9 10 11 12 13 13 13 12 12 11 12 11 8 7 5 4 6 5 3 4 7 8 9 9 9 9 9 9 7 7 6 5 6 7 7 6 6 6 6 6 6 6 7 7 6 6 7 8 8 8 7 8 8 10 9 8 7
9 9 9 9 7 6 6 6 4 3 2 3 4 4 5 6 7 8 7 7 7 7 7 7 7 8 8 8 9 10 12 14 14 15 14 13 13 11 12 11 9 7 6 3 5 5 3 3 6 7 8 8 8 9 10 10 8 8 7 6 6 6 6 6 6 5 5 5 5 5 6 5 5 6 7 7 7 7 7 7 8 9 9 7 7
8 8 7 6 5 4 4 4 3 3 3 3 4 4 4 5 7 8 8 8 7 8 8 8 9 8 8 8 9 11 13 15 15 15 14 14 13 11 12 13 11 9 8 5 4 5 3 2 4 5 6 7 7 7 8 9 8 8 8 7 6 6 6 6 5 4 5 5 4 4 5 4 5 5 6 6 6 6 6 7 7 7 8 7 7
7 6 6 5 4 3 3 3 3 3 3 4 4 5 5 6 7 9 9 8 8 9 8 8 8 8 8 8 8 9 11 14 15 16 15 14 13 11 12 14 13 9 7 6 4 5 5 3 3 4 5 6 5 5 6 7 7 7 8 8 8 7 6 6 5 5 5 5 4 5 5 4 4 4 4 5 5 6 6 7 7 6 7 7 7
7 6 5 5 4 3 2 3 3 4 4 5 6 6 7 7 8 8 9 9 9 9 8 8 8 8 7 7 7 8 9 11 14 15 14 13 13 13 12 12 12 10 7 7 5 6 6 5 4 3 6 6 4 4 5 5 5 6 8 8 8 8 7 6 6 5 4 4 5 5 4 4 4 4 4 5 5 6 6 6 6 5 6 6 5
6 5 5 4 4 3 3 3 4 5 6 7 8 7 8 8 8 8 8 10 10 10 9 8 9 8 7 6 5 6 7 8 10 12 13 14 14 14 12 10 11 10 8 8 7 7 6 7 6 3 5 4 2 4 4 3 4 5 7 8 8 8 8 7 7 6 5 5 5 5 4 3 5 5 4 4 5 5 5 5 4 5 5 5 5
6 5 5 4 4 4 4 4 5 6 7 8 8 8 8 8 9 9 8 10 11 11 10 10 10 10 9 8 6 5 4 5 7 9 11 13 12 12 11 11 11 10 9 10 9 8 7 7 7 4 4 3 2 3 3 4 5 5 5 5 6 7 7 6 6 6 6 6 6 6 5 4 5 6 5 4 4 4 4 4 4 4 4 5 5
5 5 5 5 5 5 5 6 7 8 8 8 9 10 9 9 9 9 9 10 11 12 12 11 11 11 10 10 8 8 7 5 5 7 9 9 8 9 9 9 10 9 9 10 9 10 8 8 8 5 4 3 2 1 1 3 5 5 4 3 2 3 4 5 4 5 6 7 5 5 7 6 5 5 5 5 5 5 5 4 4 4 4 4 4
7 7 6 7 7 7 7 7 8 8 8 8 9 10 10 10 9 9 11 11 11 12 13 13 14 14 13 12 10 9 9 7 6 5 7 7 6 7 6 5 7 8 8 8 9 11 10 9 9 7 4 2 2 1 1 1 2 2 2 1 1 2 1 3 4 4 6 6 4 4 7 7 7 5 5 6 6 5 6 5 5 4 4 4 3
9 9 8 8 8 8 8 9 9 8 8 8 9 10 11 11 10 10 11 14 13 12 14 16 16 15 13 14 14 12 10 8 7 5 4 4 3 4 4 2 5 8 7 7 7 9 10 9 8 6 3 2 1 1 1 1 2 2 2 1 1 2 1 1 2 5 6 6 4 4 5 6 8 7 5 5 6 5 6 7 7 6 5 4 4
9 10 9 9 8 8 9 9 9 8 8 9 10 10 11 11 11 11 12 14 13 14 16 13 11 11 10 11 12 12 12 11 9 7 5 3 2 1 1 1 2 5 6 7 5 6 7 7 6 5 3 1 1 1 2 3 3 3 3 1 1 2 3 4 3 3 5 7 5 2 3 5 6 8 7 6 5 4 4 6 8 8 6 5 6
10 11 10 7 7 9 9 9 9 9 9 10 10 10 11 11 11 12 13 14 12 15 15 8 9 13 10 6 4 5 8 10 11 9 6 5 4 2 2 5 6 6 7 7 6 6 6 5 4 4 3 1 1 2 2 2 3 2 3 3 2 3 5 6 5 4 0 5 7 5 3 4 4 6 6 5 4 3 3 5 8 9 7 7 8
10 11 9 7 7 9 9 9 9 9 9 10 10 11 11 11 11 12 14 15 14 16 14 7 11 14 7 3 2 2 3 5 8 9 8 8 7 5 4 6 7 7 7 8 7 6 5 4 4 4 3 1 2 3 3 2 3 4 5 5 4 4 5 6 4 3 3 2 4 2 1 3 2 3 3 3 3 3 3 4 6 7 7 7 8
10 10 8 7 8 9 9 9 9 9 10 10 10 10 10 10 11 12 14 15 15 17 16 8 11 12 5 4 3 1 3 5 6 7 9 9 8 9 9 7 7 8 8 10 10 8 7 7 7 6 5 4 5 5 5 5 5 7 7 7 7 6 5 6 5 3 3 5 4 3 4 3 3 1 2 1 1 2 2 1 2 4 5 5 5
9 10 9 8 9 9 9 9 9 9 9 10 10 9 9 9 10 12 14 14 14 17 17 11 12 12 5 4 2 1 7 8 4 3 7 9 10 12 12 11 11 12 12 12 11 10 9 10 12 11 9 8 8 7 9 10 11 12 13 12 11 10 9 9 9 8 6 8 8 8 9 7 4 3 1 2 3 2 0 1 2 1 1 2 3
10 10 11 10 10 9 9 9 8 9 8 9 9 8 9 8 8 11 12 14 14 16 17 13 14 13 6 4 2 1 10 10 5 4 4 6 11 15 13 13 14 14 13 13 11 11 12 12 12 11 10 9 8 10 12 14 15 16 15 15 16 16 15 15 16 16 13 13 13 12 11 11 11 10 8 6 3 3 5 5 3 2 0 2 3
11 12 12 11 10 9 9 8 8 8 7 8 9 8 8 8 9 10 11 14 14 14 16 14 15 14 8 5 3 3 9 10 11 11 6 3 8 12 14 16 16 14 13 13 13 13 13 12 11 10 10 10 9 11 14 16 16 16 15 15 16 17 17 17 18 18 17 16 14 12 12 12 13 13 12 11 10 8 8 9 8 7 6 3 3
11 11 10 8 8 7 7 6 6 6 5 6 8 8 8 9 10 11 12 14 14 13 15 15 17 16 9 4 5 8 10 10 14 16 10 5 4 6 11 15 15 13 13 12 13 13 12 11 12 13 14 14 15 16 17 17 17 16 15 15 15 16 16 16 16 15 15 14 13 12 11 12 12 11 11 10 9 8 7 7 7 7 7 5 4
10 9 8 7 7 7 6 6 5 5 5 6 7 7 8 9 10 11 11 12 13 13 13 14 16 15 10 7 10 13 12 10 14 17 12 8 6 6 10 11 10 11 12 11 11 12 12 13 15 16 17 18 19 20 19 18 18 17 17 16 16 16 16 16 15 14 14 14 13 13 12 12 11 10 10 8 8 7 6 6 6 5 5 4 4
11 10 9 8 8 7 6 6 5 5 5 6 7 7 7 8 9 10 11 11 11 11 11 12 14 14 11 10 12 15 12 10 16 19 15 11 8 8 10 11 9 9 10 11 12 13 14 15 17 18 19 20 20 20 20 19 20 19 19 18 18 18 17 17 16 15 14 14 14 14 13 13 12 11 10 9 8 7 6 6 5 5 5 4 4
12 11 10 10 9 9 7 6 5 5 6 6 6 6 6 7 8 8 9 9 8 8 9 11 12 13 11 10 13 13 9 12 20 21 19 19 15 10 9 10 9 8 10 12 13 14 15 16 18 18 19 19 20 20 20 21 21 20 19 19 19 18 18 17 17 17 16 15 15 14 14 14 14 13 12 11 9 8 7 6 6 5 5 4 4
12 11 10 11 11 10 8 7 6 5 6 5 5 5 6 6 6 6 6 7 7 6 7 9 10 10 10 11 13 9 6 13 19 20 23 25 20 14 10 9 9 8 9 11 12 13 15 16 17 18 18 18 19 21 22 22 21 19 19 19 19 19 19 18 18 18 18 17 17 16 16 16 16 15 14 13 12 11 9 8 7 6 6 5 4
13 11 10 11 12 10 8 7 6 6 6 6 6 6 5 5 5 4 4 5 6 7 6 7 8 8 9 11 12 7 7 14 18 21 27 26 23 20 14 9 9 9 7 8 9 10 11 14 16 16 17 18 20 22 22 21 20 19 18 19 19 19 20 19 18 18 17 17 17 17 17 17 17 17 16 16 14 13 12 10 9 8 8 7 7
13 12 12 13 13 10 8 7 7 7 7 7 7 6 6 6 6 5 4 5 5 6 6 5 6 7 7 10 10 6 9 15 16 21 26 27 27 29 25 13 5 5 4 4 6 8 11 13 14 15 17 19 21 22 21 21 20 19 18 18 19 19 19 19 18 17 17 16 16 16 16 17 17 17 18 18 17 15 13 12 11 10 9 9 8
12 12 13 14 13 11 8 8 7 7 7 6 6 6 6 7 7 6 5 6 6 6 5 5 5 7 7 8 8 7 10 13 16 20 25 26 28 31 30 22 11 3 1 2 3 6 11 12 12 14 17 20 21 22 21 20 19 18 17 17 17 17 17 17 17 17 16 16 15 15 15 15 16 16 17 18 18 17 14 12 11 11 11 11 10
11 12 14 15 13 11 9 8 8 7 6 5 6 7 7 7 7 7 7 7 6 6 5 4 5 7 8 8 7 8 10 12 16 21 24 25 27 27 26 25 21 10 1 1 2 4 10 12 10 13 17 20 21 21 20 19 18 16 16 15 15 15 15 15 15 15 15 14 14 13 13 13 13 14 15 15 16 17 15 12 11 11 12 12 11
11 12 15 15 13 11 10 8 8 7 6 6 7 8 8 8 8 8 8 8 7 6 4 4 6 8 10 10 9 9 11 12 16 21 23 24 26 24 20 22 23 17 9 6 3 5 11 11 10 15 18 19 20 20 18 17 16 16 15 14 13 13 13 13 13 13 13 13 12 11 11 11 11 12 12 13 14 15 15 12 10 10 10 10 10
11 12 14 14 13 12 10 9 7 7 7 8 9 10 10 9 9 9 9 9 8 8 6 4 6 9 10 11 10 10 10 12 16 21 23 24 23 20 19 18 17 18 19 13 4 6 12 10 11 16 18 18 19 18 17 16 15 14 13 12 12 12 12 11 12 12 11 10 9 9 8 9 10 11 11 11 13 14 14 11 8 7 7 7 8
12 12 13 13 13 12 11 9 7 9 11 11 11 11 11 10 9 10 10 9 9 9 7 5 5 8 10 10 10 10 11 14 18 21 22 23 21 18 17 15 11 14 21 17 9 8 11 10 12 17 17 17 18 16 15 14 13 13 12 11 11 11 10 10 10 10 10 9 8 8 8 7 8 9 10 10 12 14 13 10 7 7 6 5 6
13 12 12 13 14 13 11 9 9 11 13 13 13 12 11 10 11 11 11 10 10 9 8 6 5 7 8 9 8 9 11 14 18 21 20 21 20 17 15 12 9 12 17 16 14 12 11 9 12 16 17 16 16 15 14 13 12 12 11 10 9 9 9 8 8 8 9 9 9 9 8 7 7 9 10 11 12 13 11 8 7 7 6 5 5
13 13 13 13 14 13 11 10 10 11 12 13 13 12 10 11 11 11 10 10 10 9 9 8 7 6 7 8 8 8 10 13 17 20 20 20 20 18 16 13 10 11 13 15 16 14 11 10 12 15 15 14 14 13 13 11 11 10 10 10 9 8 7 7 7 7 7 8 8 9 8 8 8 9 11 12 12 11 9 7 7 6 6 6 6
14 13 13 14 14 13 11 11 11 11 12 12 12 12 10 10 10 9 8 9 9 8 7 7 7 6 6 7 8 8 9 11 15 18 19 19 19 19 19 16 13 11 11 13 16 16 14 12 12 14 15 13 12 11 11 10 9 9 10 11 9 8 7 6 5 5 6 7 8 8 8 8 9 10 10 10 10 9 7 6 6 6 6 6 6
14 14 15 15 14 13 12 12 12 12 12 12 12 12 11 10 8 7 7 7 7 7 6 5 5 4 4 5 5 5 7 9 13 17 20 20 20 20 20 19 17 14 11 11 13 16 18 15 12 13 14 14 12 10 10 9 8 9 12 12 10 7 6 5 3 3 5 6 7 8 8 8 8 8 8 8 7 6 4 4 5 5 5 5 5
15 15 16 16 14 13 13 13 12 12 12 12 12 11 10 9 7 5 5 6 6 5 5 4 3 2 2 3 4 3 4 7 10 13 17 20 22 23 22 20 18 16 14 13 12 14 19 18 15 13 13 13 12 9 9 10 11 13 14 13 10 7 5 4 2 3 4 6 7 8 7 7 7 7 6 6 5 4 4 4 5 6 6 6 6
15 16 17 16 15 14 14 13 12 12 12 11 11 10 9 8 6 5 5 6 6 5 4 3 3 2 2 3 4 3 3 5 8 9 11 12 15 18 20 19 17 16 15 15 13 14 18 19 16 14 13 13 12 10 10 11 13 16 16 13 10 7 4 3 1 2 4 6 7 7 6 6 6 6 6 5 5 5 5 5 6 6 6 6 7
15 16 16 15 15 15 14 13 13 12 11 11 10 9 8 6 6 7 7 6 6 6 5 5 4 3 2 3 3 3 2 3 6 8 8 8 7 9 12 15 16 16 16 16 13 14 17 18 15 15 14 14 13 13 14 15 15 16 16 13 10 6 4 2 1 1 4 6 7 6 5 5 6 6 6 5 5 6 6 7 7 7 7 8 8
16 18 16 14 15 15 14 14 13 12 11 11 10 10 9 7 7 8 8 7 6 6 5 5 6 4 3 4 3 3 2 2 3 5 6 7 7 7 9 12 16 17 17 16 13 14 17 17 15 15 16 15 14 15 17 17 16 14 13 11 9 6 4 2 0 2 4 5 5 4 4 4 5 5 5 5 6 6 6 7 7 7 8 9 10
17 18 16 15 15 15 15 15 14 13 12 11 10 9 9 8 8 8 9 8 7 6 6 6 6 6 5 5 5 5 5 4 4 4 4 5 6 8 10 13 15 16 16 15 15 16 18 17 16 16 16 16 17 18 18 16 14 13 10 7 7 5 3 1 1 2 5 5 4 4 4 5 5 5 5 6 7 7 7 8 8 10 11 11 12
17 17 16 16 16 16 16 17 17 16 14 13 11 10 9 8 8 9 10 11 10 9 8 8 8 8 8 8 8 8 8 7 7 6 6 6 6 7 9 10 11 13 14 15 17 18 19 18 18 18 18 18 18 19 17 14 12 11 8 6 5 4 3 1 1 2 4 4 4 5 5 5 5 6 7 7 8 8 9 11 12 13 14 15 15
18 17 17 18 18 18 18 18 18 17 16 14 12 11 11 10 11 12 13 13 13 12 11 11 10 10 10 11 11 11 11 10 10 10 9 8 7 7 8 9 8 8 10 13 17 19 19 19 19 19 20 19 18 17 15 13 11 9 6 4 4 3 2 1 2 2 3 3 4 4 4 4 5 7 8 9 9 10 13 14 15 15 15 15 15
20 19 18 19 19 19 18 19 19 18 16 15 14 13 13 13 14 15 15 16 15 15 14 13 12 12 13 13 14 14 14 13 13 13 12 11 10 9 10 11 10 8 8 9 12 16 18 18 19 19 19 19 18 15 13 11 9 6 4 2 1 1 0 1 1 2 3 3 4 5 5 5 6 8 9 10 12 14 15 15 14 13 14 14 15
18 18 18 17 16 16 17 18 18 16 16 16 15 15 15 15 17 18 18 18 17 16 16 15 15 15 15 15 15 15 14 14 15 15 15 13 13 12 12 12 12 12 10 9 9 10 12 14 17 18 17 17 17 15 11 9 6 4 2 1 0 0 1 1 1 1 2 3 5 6 6 6 7 9 10 12 13 15 16 14 11 11 12 14 14
14 15 16 16 16 16 16 16 16 16 16 17 16 16 16 17 19 20 21 20 19 18 17 16 16 16 16 15 15 15 15 15 16 16 16 16 15 15 13 12 12 12 12 11 10 9 9 9 12 15 15 14 14 13 10 7 4 3 2 2 1 1 1 1 1 2 2 3 5 6 5 6 9 11 12 13 15 16 16 13 9 9 12 13 12
12 13 14 16 17 18 17 17 16 17 18 19 18 18 18 18 20 22 23 22 21 19 18 17 17 16 15 15 14 14 15 16 16 16 16 16 16 15 13 11 11 11 11 11 10 10 10 10 10 13 15 13 11 10 8 5 4 3 2 2 1 1 2 2 1 1 3 4 7 7 5 8 12 13 14 16 17 17 17 13 8 10 13 13 13
13 13 14 15 16 17 18 19 19 19 20 21 21 20 19 19 21 23 25 24 23 21 20 19 18 16 14 14 14 15 16 17 16 15 14 15 15 14 14 13 12 11 11 11 10 10 11 12 12 13 14 12 9 7 5 4 3 2 2 2 2 2 2 1 1 3 5 7 9 8 8 11 14 14 16 18 18 18 16 11 8 12 15 14 14
12 13 15 15 15 15 16 17 17 17 18 19 21 20 20 21 23 25 26 25 24 23 21 20 19 17 15 14 14 15 17 18 17 15 13 13 14 14 15 15 14 14 14 14 13 12 12 12 13 12 11 10 7 6 4 3 2 1 1 1 1 1 1 3 3 5 8 9 9 8 9 12 13 14 18 18 17 17 14 8 8 14 16 15 16
9 11 13 14 15 15 15 16 16 16 17 17 18 18 19 21 23 25 25 25 24 23 22 20 19 17 15 15 15 16 18 18 17 15 14 13 14 16 17 18 18 18 18 17 16 15 14 13 13 12 10 9 7 5 4 2 1 1 1 1 0 1 2 3 3 6 9 8 7 8 10 12 13 14 17 17 16 14 10 7 11 16 18 18 18
6 7 9 11 11 12 13 13 13 14 15 15 16 17 18 20 22 23 24 24 24 23 22 21 20 18 17 17 17 17 18 17 16 15 14 13 15 17 18 20 21 21 20 18 17 16 16 14 13 11 9 8 6 4 2 2 2 0 1 2 2 3 4 4 4 6 6 5 6 8 10 12 12 13 14 14 12 8 7 9 15 18 18 19 19
Wind_Direction
144 144 147 148 143 139 139 136 131 123 119 123 123 127 128 123 123 126 123 116 110 110 114 121 132 143 150 155 158 163 169 175 181 181 181 174 163 165 159 161 172 133 112 112 101 77 67 74 80 86 91 94 98 97 93 86 86 93 94 96 98 99 98 93 93 90 84 81 79 82 82 84 89 89 83 75 71 68 84 97 86 85 94 85 73
149 149 149 147 146 145 143 140 134 124 118 121 116 110 117 123 134 142 140 133 123 117 118 122 124 133 149 157 160 165 170 174 180 184 184 177 167 165 163 169 177 149 123 113 109 95 77 77 78 79 83 88 94 93 89 85 83 92 97 95 95 99 98 92 95 98 93 90 86 85 84 87 89 85 78 74 70 60 70 93 84 76 85 82 74
156 155 153 151 151 151 149 142 134 125 119 118 114 105 106 114 132 142 143 143 135 124 127 134 133 138 150 159 163 166 171 176 181 187 187 178 170 167 166 171 179 166 142 119 109 121 119 95 87 80 83 88 88 82 81 85 85 88 90 90 89 93 93 87 88 92 92 91 86 83 80 83 84 84 84 80 73 66 67 77 79 75 74 73 72
163 162 157 158 157 153 153 144 134 130 127 127 123 115 107 111 128 134 138 146 142 134 136 145 148 150 155 163 166 168 175 181 186 190 188 180 172 169 169 170 178 180 164 120 100 123 146 105 102 94 93 98 89 80 76 73 70 71 77 83 86 91 94 88 80 83 90 92 91 92 87 82 84 88 90 89 83 77 76 78 82 85 80 74 71
167 166 160 162 160 150 150 146 143 148 149 149 142 128 118 121 134 138 140 147 145 140 144 155 159 159 160 165 169 174 182 186 191 192 188 183 176 171 171 172 178 182 179 149 99 123 152 107 116 116 109 107 96 91 84 72 63 63 66 70 79 87 93 95 88 86 90 89 87 91 93 91 86 84 87 90 89 84 82 81 84 92 88 82 84
170 167 163 168 169 151 146 146 150 167 169 164 160 147 135 135 145 149 148 148 149 149 157 164 163 163 164 169 175 180 187 190 192 192 190 185 178 174 177 180 182 178 178 171 117 118 138 97 114 124 120 116 104 101 95 81 67 64 68 70 79 82 83 91 93 90 86 79 67 73 88 93 87 87 94 94 91 87 82 79 79 85 82 81 98
177 172 171 176 180 164 151 154 159 168 166 165 171 166 154 148 152 155 153 153 156 157 163 164 160 163 166 171 179 182 188 191 192 192 191 184 178 183 187 185 182 174 169 173 144 121 119 94 93 100 109 110 92 97 108 91 71 71 74 72 80 82 82 86 85 85 86 77 59 62 74 79 84 86 94 93 88 87 80 77 73 75 77 76 95
185 180 184 187 183 170 156 163 168 160 154 160 167 167 164 158 156 159 158 158 163 162 159 156 149 150 157 166 175 183 188 191 195 194 190 185 187 196 194 182 179 176 167 171 161 134 125 118 107 84 101 108 79 81 104 93 76 82 78 72 77 79 81 83 83 87 88 81 68 59 57 63 79 79 79 79 79 84 84 84 78 72 74 75 84
191 186 191 192 181 171 166 165 164 153 148 149 151 157 165 164 157 160 166 165 166 161 149 144 138 133 135 142 151 170 183 191 199 199 193 193 198 201 197 185 176 172 171 175 167 156 150 133 126 113 117 131 124 93 87 90 100 99 85 78 81 81 82 78 79 90 93 88 76 54 45 66 73 67 72 73 71 80 83 85 82 74 74 78 78
190 190 189 188 188 185 177 167 163 156 152 149 148 155 164 167 159 159 172 175 170 161 146 137 129 121 113 108 113 128 149 176 191 198 198 198 201 202 205 196 178 168 176 182 172 170 168 144 141 152 152 158 155 127 108 109 114 114 103 93 91 90 92 82 75 87 97 96 82 55 54 89 78 58 67 74 69 70 64 69 72 70 72 76 78
201 200 197 194 195 194 181 169 166 160 157 155 155 161 162 163 161 157 165 173 174 161 146 134 120 110 102 95 96 101 104 117 154 180 185 182 185 198 213 207 185 174 179 185 181 178 176 163 164 172 166 154 150 153 114 113 120 125 124 125 117 110 120 115 94 87 93 96 88 62 59 79 81 63 71 69 68 73 58 61 67 58 63 68 72
205 200 198 193 192 194 183 171 170 165 163 159 156 163 163 162 164 161 159 161 165 156 147 138 116 101 93 88 84 88 95 103 114 145 166 161 167 192 216 214 190 181 179 189 188 175 174 176 176 181 181 163 157 68 41 117 165 125 102 149 290 300 204 148 133 118 103 97 86 69 64 69 73 70 81 68 60 70 58 57 61 51 53 55 58
200 195 190 187 190 191 182 176 173 167 164 156 153 163 167 167 166 164 163 158 157 156 149 140 120 102 92 83 77 74 81 93 96 95 120 139 157 199 224 226 183 177 174 190 182 155 164 171 159 159 174 196 236 331 14 325 297 332 332 296 322 322 313 11 150 160 156 139 105 72 71 72 70 68 79 75 60 58 53 54 54 43 41 45 47
196 190 184 184 190 188 181 181 176 164 159 154 157 169 172 173 170 164 164 162 163 164 154 141 124 119 111 92 77 72 72 77 84 76 71 88 86 158 255 7 135 152 155 181 166 112 128 147 131 129 139 163 248 340 339 332 331 327 335 359 28 39 55 47 83 145 185 174 154 132 100 82 71 67 71 78 70 54 47 50 47 39 38 48 50
189 184 182 184 190 186 180 182 178 166 162 160 165 177 177 177 177 170 165 162 167 170 163 149 139 134 120 105 82 73 71 67 73 76 80 92 80 68 44 47 66 86 106 139 134 92 95 113 108 109 104 80 47 31 8 356 12 31 30 36 33 30 46 48 58 60 88 178 180 197 152 100 71 64 65 68 70 65 54 48 48 47 43 50 56
182 182 182 181 184 182 178 179 176 171 171 170 173 182 184 182 180 178 172 166 169 177 176 163 155 149 123 91 83 81 95 75 71 71 81 97 87 87 94 79 79 84 87 99 101 87 81 89 84 90 95 66 74 65 51 40 40 45 34 28 31 28 39 46 57 57 31 109 170 216 145 154 156 84 82 65 60 78 72 51 51 54 50 52 56
178 183 183 180 177 176 178 177 174 175 177 179 180 184 191 190 185 187 185 179 177 183 189 186 172 168 141 118 102 69 156 125 94 69 71 86 87 94 100 92 94 95 87 84 86 78 68 78 85 89 100 95 87 75 67 66 55 55 54 49 51 54 61 64 68 84 73 82 99 47 51 146 194 184 187 186 119 113 96 78 50 56 56 45 37
173 178 176 171 167 168 173 173 171 174 176 181 183 188 195 196 194 196 194 193 189 188 195 201 190 185 164 141 98 57 162 144 117 75 78 88 92 95 94 90 93 95 96 98 93 84 77 84 91 92 92 85 82 81 79 82 79 76 74 70 68 69 76 82 81 89 97 92 90 75 65 72 73 73 146 215 226 233 271 248 259 293 358 343 325
163 165 163 160 160 160 162 164 166 170 175 179 181 188 195 198 202 201 199 202 200 195 199 205 197 198 209 220 310 74 159 155 148 136 100 86 89 94 98 100 101 99 101 104 98 95 93 92 94 96 95 87 85 93 95 94 92 87 82 76 74 74 77 82 86 91 95 92 89 83 74 70 71 73 76 79 85 68 52 52 50 43 341 296 314
156 157 157 158 160 160 162 167 167 168 174 181 180 182 192 201 206 208 209 210 213 210 209 212 205 203 209 229 259 160 155 158 151 137 118 95 91 93 98 99 99 98 96 96 95 97 97 97 102 104 105 104 104 108 108 105 99 91 84 78 75 76 78 80 84 88 90 91 90 84 76 71 69 70 72 76 78 77 69 65 63 66 76 78 55
156 158 159 160 161 162 167 175 175 173 176 184 184 183 192 203 208 212 214 215 222 223 219 218 213 209 203 179 161 147 138 138 141 129 114 117 111 99 101 96 91 88 92 96 96 98 100 103 106 107 108 109 112 112 108 104 98 91 86 81 77 76 78 78 81 84 86 87 85 79 73 69 67 65 66 69 71 72 67 62 59 61 69 69 56
162 165 165 165 166 165 171 180 186 186 186 194 198 197 201 205 208 214 217 217 222 223 224 223 216 215 214 192 165 149 135 127 134 129 116 107 105 110 108 101 89 80 86 96 100 102 105 105 107 108 110 110 109 108 104 99 95 92 88 85 81 78 76 76 77 80 81 81 79 75 71 68 67 64 63 62 62 62 59 58 58 56 57 49 40
172 172 171 172 171 170 174 182 189 188 189 204 212 209 204 200 201 208 212 215 218 220 222 218 212 214 221 219 190 168 158 153 150 143 134 123 114 109 105 103 97 86 91 99 104 108 110 112 113 114 113 112 110 107 104 102 99 96 92 87 82 79 75 74 74 76 77 79 79 76 72 68 66 64 62 59 55 51 47 45 44 43 46 45 41
175 174 174 178 178 178 181 183 182 181 186 195 196 189 184 182 186 193 200 204 207 212 209 205 209 210 213 216 193 179 179 169 160 153 144 138 129 119 116 112 101 95 103 105 107 112 117 120 120 118 117 114 112 110 109 108 105 100 95 88 83 79 76 75 75 76 76 77 78 76 73 69 65 62 59 56 53 49 43 38 33 30 28 29 29
177 178 178 181 183 182 182 181 173 169 171 164 155 154 157 158 164 173 183 192 196 197 194 196 204 204 203 196 180 177 185 170 163 155 146 138 129 123 123 120 116 114 110 106 107 111 117 122 121 120 119 116 113 114 114 112 108 102 97 90 84 79 78 77 76 77 76 75 75 73 71 68 64 60 56 52 49 46 42 36 30 27 21 17 16
180 182 184 184 182 180 179 175 164 157 154 145 136 135 143 146 147 156 162 175 189 191 190 189 189 190 191 186 181 180 174 167 163 156 150 143 135 131 123 107 106 110 107 109 114 114 118 122 123 122 120 118 119 119 118 114 108 103 99 92 86 81 80 80 78 77 75 74 72 69 65 62 59 56 52 49 46 45 44 41 36 32 28 22 18
185 185 187 183 179 176 174 166 156 152 145 138 134 134 143 144 138 142 141 142 161 175 182 180 175 179 182 184 187 180 169 169 165 162 159 152 145 139 133 124 98 86 91 99 113 122 127 126 125 127 126 125 126 125 122 116 110 106 101 94 88 84 82 80 78 76 74 71 69 65 61 55 51 48 47 44 43 42 42 43 42 38 35 31 26
187 185 181 178 176 172 167 162 159 158 153 146 141 141 146 142 133 132 130 128 134 138 141 145 155 168 173 179 183 168 166 171 168 167 165 158 152 147 142 139 137 116 57 83 99 125 136 132 130 134 133 132 133 131 126 119 114 109 103 96 90 86 84 80 76 73 71 69 65 61 56 51 46 42 40 40 39 39 38 39 40 39 38 37 36
183 182 175 173 174 170 164 162 163 164 167 169 161 155 153 143 131 127 125 127 132 126 119 120 130 147 158 164 167 156 158 168 173 173 169 162 157 154 151 148 144 139 115 139 150 160 153 143 137 142 142 140 140 136 131 123 116 110 105 100 94 90 88 82 77 74 70 67 62 56 51 47 43 40 36 33 33 32 31 32 35 37 38 40 42
179 179 175 174 173 171 167 162 162 165 170 171 164 162 163 154 138 132 131 133 136 130 125 127 126 134 141 145 148 147 150 164 175 176 172 167 163 159 158 154 148 146 146 147 162 177 164 153 147 151 148 145 145 140 135 129 119 113 110 105 100 95 92 87 81 77 71 66 60 52 45 39 35 34 30 25 23 23 24 25 28 34 38 39 39
179 179 180 181 177 175 170 162 161 163 161 157 155 158 162 158 151 145 141 139 137 134 137 141 139 139 137 136 142 143 147 160 171 175 173 171 169 165 161 157 154 154 151 144 143 179 171 159 153 156 151 147 149 145 140 135 125 120 117 111 105 100 97 92 86 82 75 68 60 49 38 29 24 21 18 13 10 10 14 20 23 27 32 36 35
180 179 182 185 182 178 171 163 160 156 152 150 150 156 159 157 155 155 154 150 140 131 135 141 146 151 146 139 142 143 147 157 167 173 175 176 176 172 164 160 155 158 156 145 136 162 167 156 154 158 155 151 152 151 149 145 138 131 126 120 114 107 102 96 90 86 76 63 52 40 28 18 10 6 3 360 357 358 4 14 22 21 21 27 30
184 182 183 186 184 178 170 164 157 152 152 150 149 154 156 152 149 150 155 159 146 130 129 130 134 152 155 150 153 155 155 161 169 175 179 182 184 181 176 173 160 161 163 150 139 150 160 157 156 159 159 159 158 157 159 158 153 144 136 134 128 116 109 102 94 85 66 50 41 32 23 10 357 351 349 346 345 350 358 8 17 16 14 17 23
188 186 185 187 184 179 171 166 158 155 157 156 155 156 154 150 147 145 148 154 150 136 130 124 120 135 149 156 165 172 172 172 176 183 187 190 193 195 195 198 185 171 169 155 147 152 157 157 160 162 163 165 165 165 166 167 166 159 147 144 140 126 116 107 100 83 56 41 33 24 13 1 349 342 341 339 341 350 2 9 13 15 16 18 19
189 190 190 188 182 178 175 170 164 161 161 161 161 162 161 158 151 145 144 148 149 143 136 126 118 123 139 150 157 168 179 187 191 194 198 200 204 207 208 211 206 191 179 168 160 159 158 156 162 169 168 168 171 172 171 170 173 170 161 153 147 136 125 119 111 84 49 33 23 13 2 353 347 344 343 342 344 357 11 17 19 22 24 23 18
193 194 194 188 182 180 179 175 170 165 161 160 163 165 167 169 164 154 149 150 150 148 145 136 122 117 132 145 151 161 176 192 200 204 209 211 214 216 217 217 215 208 201 193 179 169 165 161 162 172 174 173 173 176 180 179 174 170 166 159 152 143 136 134 121 70 39 23 11 4 0 356 352 349 347 345 349 2 15 17 13 10 8 7 4
197 197 193 189 186 183 178 172 169 167 163 161 163 165 169 175 180 178 169 162 156 152 155 153 137 121 140 159 160 165 186 200 202 206 213 218 222 224 226 224 218 212 210 208 201 186 177 170 164 168 174 176 173 173 184 185 169 158 158 158 154 146 142 146 123 50 27 12 6 2 1 359 353 350 349 348 353 360 1 358 355 349 345 340 338
199 195 192 190 189 184 177 174 172 170 170 170 171 173 176 182 193 201 191 176 169 167 168 168 153 131 149 182 173 159 196 218 213 211 214 219 224 227 230 228 218 210 208 205 204 195 183 174 168 167 170 175 174 168 173 180 173 161 157 154 151 147 146 154 149 32 15 6 3 2 2 2 357 354 354 351 352 355 350 347 345 344 342 337 333
201 194 192 193 192 189 185 184 182 181 181 184 185 187 188 192 201 207 204 192 181 177 178 180 179 162 153 180 184 170 185 225 224 222 221 221 218 215 220 217 206 200 201 199 195 188 180 172 168 169 169 171 174 169 165 170 171 164 161 156 148 144 147 160 200 2 13 8 6 8 16 19 11 7 3 354 351 353 348 342 338 338 339 336 333
202 196 196 198 197 199 201 198 194 194 196 197 200 201 203 207 209 210 212 209 199 191 190 190 193 195 189 186 190 189 196 211 218 221 223 223 211 193 192 197 195 194 193 192 187 181 177 171 167 168 168 167 169 165 162 165 163 159 161 159 147 141 145 157 239 1 24 22 16 13 18 23 19 16 11 357 352 352 347 341 336 332 333 332 329
202 199 201 205 204 206 210 208 205 204 205 207 207 209 216 220 219 217 219 222 222 216 209 207 209 214 213 210 209 206 205 205 199 196 200 207 205 193 185 186 191 192 189 187 184 179 176 170 165 166 165 164 166 164 162 166 167 161 161 158 144 135 133 145 276 1 26 29 13 355 359 11 10 7 2 353 348 346 340 336 334 331 330 326 321
203 203 206 209 211 214 216 215 214 213 212 212 213 218 229 233 231 229 229 232 235 234 232 232 232 233 234 233 230 223 215 209 203 195 183 180 185 190 187 184 189 192 187 182 180 179 177 172 170 170 166 164 168 168 166 167 168 162 156 150 138 131 131 159 262 334 10 15 360 352 357 1 356 352 351 350 348 343 337 333 330 327 323 319 315
207 208 210 212 215 220 223 223 223 222 220 217 213 217 230 239 241 239 238 240 242 244 246 245 242 242 243 244 242 237 228 216 207 201 191 182 178 181 184 183 188 198 195 185 181 181 181 176 174 176 172 167 169 172 169 164 160 155 146 134 121 120 132 178 251 299 341 355 358 357 352 342 342 345 346 346 344 341 337 334 328 324 321 321 323
210 213 215 217 221 227 232 234 233 232 234 233 225 222 228 237 244 245 243 244 247 249 250 248 247 248 249 250 247 241 235 224 213 206 200 194 188 184 184 184 184 191 197 197 191 188 188 183 177 177 177 172 168 169 169 162 155 150 135 106 69 67 69 306 278 285 328 351 359 355 345 335 337 341 341 341 339 338 339 335 328 324 327 332 334
214 216 220 224 230 237 241 244 245 246 248 248 242 237 237 241 245 246 246 247 249 252 253 253 252 251 251 252 247 238 232 223 213 206 201 198 194 190 187 184 184 184 186 192 193 192 195 192 184 179 179 177 170 165 167 167 163 159 143 123 349 49 11 352 358 334 337 350 350 343 334 324 326 331 333 335 336 339 341 338 328 328 336 341 340
221 221 227 234 240 245 247 249 254 257 260 259 254 247 245 246 246 245 245 245 247 250 254 255 255 252 250 250 243 234 226 216 208 204 200 197 194 189 186 182 181 182 184 185 185 182 181 186 187 181 175 175 173 167 165 166 160 156 147 150 153 113 58 38 33 355 336 340 340 336 322 316 326 329 330 335 336 339 343 340 333 336 341 342 340
235 235 240 245 249 252 254 257 261 265 266 267 264 257 252 250 248 246 244 243 244 248 252 253 252 248 245 242 235 227 220 209 202 200 199 196 193 189 186 183 179 176 174 173 175 176 170 167 174 172 163 161 165 163 159 157 153 147 133 122 107 82 75 79 69 346 335 335 336 336 325 324 330 329 330 334 334 335 340 337 331 340 342 339 335
256 256 254 256 258 260 262 264 267 270 271 270 267 262 257 252 247 243 241 242 244 247 249 251 250 245 238 230 223 217 211 203 198 197 200 201 198 192 183 176 172 166 156 151 154 160 162 157 158 159 155 152 154 152 147 144 135 113 87 74 68 72 66 40 348 331 337 334 331 332 326 326 330 326 326 329 328 329 334 329 322 338 342 339 334
269 267 264 264 264 265 266 266 268 274 279 277 271 265 259 251 245 241 240 241 243 244 246 247 246 242 235 226 219 211 204 200 197 197 201 203 200 193 180 168 163 157 147 143 145 148 151 151 149 148 147 145 142 136 126 113 93 67 7 18 80 82 2 358 346 336 337 330 321 319 317 320 325 322 320 323 324 325 328 322 323 335 337 335 333
278 275 271 269 267 267 269 270 272 276 282 283 278 271 263 255 249 246 244 242 242 242 243 242 240 238 231 223 217 210 203 200 197 196 197 197 193 188 179 168 161 154 148 148 150 148 147 148 146 143 141 136 130 126 122 127 169 222 274 310 49 16 11 19 360 337 333 321 302 305 312 315 319 321 321 322 321 321 325 322 325 330 329 329 330
286 283 279 276 273 272 273 276 278 278 281 284 278 271 266 261 257 255 251 246 243 241 238 237 235 230 223 217 213 209 204 202 199 197 196 195 190 184 177 169 160 154 153 156 156 151 149 148 143 140 138 134 136 147 166 186 199 222 22 40 44 37 32 24 356 335 330 311 294 305 313 313 316 323 327 327 323 323 328 320 319 323 325 326 327